owner,sensor,date,latitude,longitude,vertical_datum,wind_speed,wind_to_direction,wind_speed_of_gust,qcFlag 
WAVCIS,ioos:station:WAVCIS:CSI16:1,2010-12-01T00:00:00Z,29.4012,-89.0355,10.0,10.67,320.0,,'11111222,11111222,99999999' 
WAVCIS,ioos:station:WAVCIS:CSI16:1,2010-12-01T01:00:00Z,29.4012,-89.0355,10.0,9.86,308.0,,'11111222,11111222,99999999' 
WAVCIS,ioos:station:WAVCIS:CSI16:1,2010-12-01T02:00:00Z,29.4012,-89.0355,10.0,14.24,318.0,,'11111222,11111222,99999999' 
WAVCIS,ioos:station:WAVCIS:CSI16:1,2010-12-01T03:00:00Z,29.4012,-89.0355,10.0,15.07,328.0,,'11111222,11111222,99999999' 
WAVCIS,ioos:station:WAVCIS:CSI16:1,2010-12-01T04:00:00Z,29.4012,-89.0355,10.0,14.43,325.0,,'11111222,11111222,99999999' 
WAVCIS,ioos:station:WAVCIS:CSI16:1,2010-12-01T05:00:00Z,29.4012,-89.0355,10.0,14.2,329.0,,'11111222,11111222,99999999' 
WAVCIS,ioos:station:WAVCIS:CSI16:1,2010-12-01T06:00:00Z,29.4012,-89.0355,10.0,14.32,332.0,,'11111222,11111222,99999999' 
WAVCIS,ioos:station:WAVCIS:CSI16:1,2010-12-01T07:00:00Z,29.4012,-89.0355,10.0,14.44,339.0,,'11111222,11111222,99999999' 
WAVCIS,ioos:station:WAVCIS:CSI16:1,2010-12-01T08:00:00Z,29.4012,-89.0355,10.0,13.7,341.0,,'11111222,11111222,99999999' 
WAVCIS,ioos:station:WAVCIS:CSI16:1,2010-12-01T09:00:00Z,29.4012,-89.0355,10.0,13.57,338.0,,'11111222,11111222,99999999' 
WAVCIS,ioos:station:WAVCIS:CSI16:1,2010-12-01T10:00:00Z,29.4012,-89.0355,10.0,13.54,338.0,,'11111222,11111222,99999999' 
WAVCIS,ioos:station:WAVCIS:CSI16:1,2010-12-01T11:00:00Z,29.4012,-89.0355,10.0,12.78,341.0,,'11111222,11111222,99999999' 
WAVCIS,ioos:station:WAVCIS:CSI16:1,2010-12-01T12:00:00Z,29.4012,-89.0355,10.0,11.71,340.0,,'11111222,11111222,99999999' 
WAVCIS,ioos:station:WAVCIS:CSI16:1,2010-12-01T13:00:00Z,29.4012,-89.0355,10.0,11.66,343.0,,'11111222,11111222,99999999' 
WAVCIS,ioos:station:WAVCIS:CSI16:1,2010-12-01T14:00:00Z,29.4012,-89.0355,10.0,10.57,345.0,,'11111222,11111222,99999999' 
WAVCIS,ioos:station:WAVCIS:CSI16:1,2010-12-01T15:00:00Z,29.4012,-89.0355,10.0,9.47,352.0,,'11111222,11111222,99999999' 
WAVCIS,ioos:station:WAVCIS:CSI16:1,2010-12-01T16:00:00Z,29.4012,-89.0355,10.0,8.84,359.0,,'11111222,11111222,99999999' 
WAVCIS,ioos:station:WAVCIS:CSI16:1,2010-12-01T17:00:00Z,29.4012,-89.0355,10.0,8.56,356.0,,'11111222,11111222,99999999' 
WAVCIS,ioos:station:WAVCIS:CSI16:1,2010-12-01T18:00:00Z,29.4012,-89.0355,10.0,7.08,355.0,,'11111222,11111222,99999999' 
WAVCIS,ioos:station:WAVCIS:CSI16:1,2010-12-01T19:00:00Z,29.4012,-89.0355,10.0,5.703,342.0,,'11111222,11111222,99999999' 
WAVCIS,ioos:station:WAVCIS:CSI16:1,2010-12-01T20:00:00Z,29.4012,-89.0355,10.0,5.491,340.0,,'11111222,11111222,99999999' 
WAVCIS,ioos:station:WAVCIS:CSI16:1,2010-12-01T21:00:00Z,29.4012,-89.0355,10.0,5.746,340.0,,'11111222,11111222,99999999' 
WAVCIS,ioos:station:WAVCIS:CSI16:1,2010-12-01T22:00:00Z,29.4012,-89.0355,10.0,5.547,338.0,,'11111222,11111222,99999999' 
WAVCIS,ioos:station:WAVCIS:CSI16:1,2010-12-01T23:00:00Z,29.4012,-89.0355,10.0,4.89,329.0,,'11111222,11111222,99999999' 
WAVCIS,ioos:station:WAVCIS:CSI16:1,2010-12-02T00:00:00Z,29.4012,-89.0355,10.0,5.523,323.0,,'11111222,11111222,99999999' 
WAVCIS,ioos:station:WAVCIS:CSI16:1,2010-12-02T01:00:00Z,29.4012,-89.0355,10.0,5.786,329.0,,'11111222,11111222,99999999' 
WAVCIS,ioos:station:WAVCIS:CSI16:1,2010-12-02T02:00:00Z,29.4012,-89.0355,10.0,5.492,324.0,,'11111222,11111222,99999999' 
WAVCIS,ioos:station:WAVCIS:CSI16:1,2010-12-02T03:00:00Z,29.4012,-89.0355,10.0,4.261,309.0,,'11111222,11111222,99999999' 
WAVCIS,ioos:station:WAVCIS:CSI16:1,2010-12-02T04:00:00Z,29.4012,-89.0355,10.0,4.793,337.0,,'11111222,11111222,99999999' 
WAVCIS,ioos:station:WAVCIS:CSI16:1,2010-12-02T05:00:00Z,29.4012,-89.0355,10.0,4.78,337.0,,'11111222,11111222,99999999' 
WAVCIS,ioos:station:WAVCIS:CSI16:1,2010-12-02T06:00:00Z,29.4012,-89.0355,10.0,4.567,335.0,,'11111222,11111222,99999999' 
WAVCIS,ioos:station:WAVCIS:CSI16:1,2010-12-02T07:00:00Z,29.4012,-89.0355,10.0,4.75,333.0,,'11111222,11111222,99999999' 
WAVCIS,ioos:station:WAVCIS:CSI16:1,2010-12-02T08:00:00Z,29.4012,-89.0355,10.0,5.185,334.0,,'11111222,11111222,99999999' 
WAVCIS,ioos:station:WAVCIS:CSI16:1,2010-12-02T09:00:00Z,29.4012,-89.0355,10.0,5.227,337.0,,'11111222,11111222,99999999' 
WAVCIS,ioos:station:WAVCIS:CSI16:1,2010-12-02T10:00:00Z,29.4012,-89.0355,10.0,4.742,337.0,,'11111222,11111222,99999999' 
WAVCIS,ioos:station:WAVCIS:CSI16:1,2010-12-02T11:00:00Z,29.4012,-89.0355,10.0,4.033,337.0,,'11111222,11111222,99999999' 
WAVCIS,ioos:station:WAVCIS:CSI16:1,2010-12-02T12:00:00Z,29.4012,-89.0355,10.0,3.309,325.0,,'11111222,11111222,99999999' 
WAVCIS,ioos:station:WAVCIS:CSI16:1,2010-12-02T13:00:00Z,29.4012,-89.0355,10.0,4.19,330.0,,'11111222,11111222,99999999' 
WAVCIS,ioos:station:WAVCIS:CSI16:1,2010-12-02T14:00:00Z,29.4012,-89.0355,10.0,4.684,330.0,,'11111222,11111222,99999999' 
WAVCIS,ioos:station:WAVCIS:CSI16:1,2010-12-02T15:00:00Z,29.4012,-89.0355,10.0,5.26,339.0,,'11111222,11111222,99999999' 
WAVCIS,ioos:station:WAVCIS:CSI16:1,2010-12-02T16:00:00Z,29.4012,-89.0355,10.0,5.763,340.0,,'11111222,11111222,99999999' 
WAVCIS,ioos:station:WAVCIS:CSI16:1,2010-12-02T17:00:00Z,29.4012,-89.0355,10.0,6.122,342.0,,'11111222,11111222,99999999' 
WAVCIS,ioos:station:WAVCIS:CSI16:1,2010-12-02T18:00:00Z,29.4012,-89.0355,10.0,5.695,342.0,,'11111222,11111222,99999999' 
WAVCIS,ioos:station:WAVCIS:CSI16:1,2010-12-02T19:00:00Z,29.4012,-89.0355,10.0,4.503,350.0,,'11111222,11111222,99999999' 
WAVCIS,ioos:station:WAVCIS:CSI16:1,2010-12-02T20:00:00Z,29.4012,-89.0355,10.0,4.052,334.0,,'11111222,11111222,99999999' 
WAVCIS,ioos:station:WAVCIS:CSI16:1,2010-12-02T21:00:00Z,29.4012,-89.0355,10.0,3.266,342.0,,'11111222,11111222,99999999' 
WAVCIS,ioos:station:WAVCIS:CSI16:1,2010-12-02T22:00:00Z,29.4012,-89.0355,10.0,2.732,323.0,,'11111222,11111222,99999999' 
WAVCIS,ioos:station:WAVCIS:CSI16:1,2010-12-02T23:00:00Z,29.4012,-89.0355,10.0,2.654,317.0,,'11111222,11111222,99999999' 
WAVCIS,ioos:station:WAVCIS:CSI16:1,2010-12-03T00:00:00Z,29.4012,-89.0355,10.0,2.608,322.0,,'11111222,11111222,99999999' 
WAVCIS,ioos:station:WAVCIS:CSI16:1,2010-12-03T01:00:00Z,29.4012,-89.0355,10.0,1.877,333.0,,'11111222,11111222,99999999' 
WAVCIS,ioos:station:WAVCIS:CSI16:1,2010-12-03T02:00:00Z,29.4012,-89.0355,10.0,0.876,348.0,,'11111222,11111222,99999999' 
WAVCIS,ioos:station:WAVCIS:CSI16:1,2010-12-03T03:00:00Z,29.4012,-89.0355,10.0,0.812,281.0,,'11111222,11111222,99999999' 
WAVCIS,ioos:station:WAVCIS:CSI16:1,2010-12-03T04:00:00Z,29.4012,-89.0355,10.0,1.002,253.0,,'11111222,11111222,99999999' 
WAVCIS,ioos:station:WAVCIS:CSI16:1,2010-12-03T05:00:00Z,29.4012,-89.0355,10.0,1.713,223.0,,'11111222,11111222,99999999' 
WAVCIS,ioos:station:WAVCIS:CSI16:1,2010-12-03T06:00:00Z,29.4012,-89.0355,10.0,1.195,221.0,,'11111222,11111222,99999999' 
WAVCIS,ioos:station:WAVCIS:CSI16:1,2010-12-03T07:00:00Z,29.4012,-89.0355,10.0,2.226,231.0,,'11111222,11111222,99999999' 
WAVCIS,ioos:station:WAVCIS:CSI16:1,2010-12-03T08:00:00Z,29.4012,-89.0355,10.0,2.635,231.0,,'11111222,11111222,99999999' 
WAVCIS,ioos:station:WAVCIS:CSI16:1,2010-12-03T09:00:00Z,29.4012,-89.0355,10.0,2.023,242.0,,'11111222,11111222,99999999' 
WAVCIS,ioos:station:WAVCIS:CSI16:1,2010-12-03T10:00:00Z,29.4012,-89.0355,10.0,1.176,266.0,,'11111222,11111222,99999999' 
WAVCIS,ioos:station:WAVCIS:CSI16:1,2010-12-03T11:00:00Z,29.4012,-89.0355,10.0,1.519,300.0,,'11111222,11111222,99999999' 
WAVCIS,ioos:station:WAVCIS:CSI16:1,2010-12-03T12:00:00Z,29.4012,-89.0355,10.0,1.112,301.0,,'11111222,11111222,99999999' 
WAVCIS,ioos:station:WAVCIS:CSI16:1,2010-12-03T13:00:00Z,29.4012,-89.0355,10.0,1.244,272.0,,'11111222,11111222,99999999' 
WAVCIS,ioos:station:WAVCIS:CSI16:1,2010-12-03T14:00:00Z,29.4012,-89.0355,10.0,0.693,299.0,,'11111222,11111222,99999999' 
WAVCIS,ioos:station:WAVCIS:CSI16:1,2010-12-03T15:00:00Z,29.4012,-89.0355,10.0,0.786,285.0,,'11111222,11111222,99999999' 
WAVCIS,ioos:station:WAVCIS:CSI16:1,2010-12-03T16:00:00Z,29.4012,-89.0355,10.0,0.438,317.0,,'11111222,11111222,99999999' 
WAVCIS,ioos:station:WAVCIS:CSI16:1,2010-12-03T17:00:00Z,29.4012,-89.0355,10.0,1.13,272.0,,'11111222,11111222,99999999' 
WAVCIS,ioos:station:WAVCIS:CSI16:1,2010-12-03T18:00:00Z,29.4012,-89.0355,10.0,1.065,271.0,,'11111222,11111222,99999999' 
WAVCIS,ioos:station:WAVCIS:CSI16:1,2010-12-03T19:00:00Z,29.4012,-89.0355,10.0,1.407,256.0,,'11111222,11111222,99999999' 
WAVCIS,ioos:station:WAVCIS:CSI16:1,2010-12-03T20:00:00Z,29.4012,-89.0355,10.0,0.494,213.0,,'11111222,11111222,99999999' 
WAVCIS,ioos:station:WAVCIS:CSI16:1,2010-12-03T21:00:00Z,29.4012,-89.0355,10.0,1.458,172.0,,'11111222,11111222,99999999' 
WAVCIS,ioos:station:WAVCIS:CSI16:1,2010-12-03T22:00:00Z,29.4012,-89.0355,10.0,2.144,167.0,,'11111222,11111222,99999999' 
WAVCIS,ioos:station:WAVCIS:CSI16:1,2010-12-03T23:00:00Z,29.4012,-89.0355,10.0,2.671,167.0,,'11111222,11111222,99999999' 
WAVCIS,ioos:station:WAVCIS:CSI16:1,2010-12-04T00:00:00Z,29.4012,-89.0355,10.0,2.865,149.0,,'11111222,11111222,99999999' 
WAVCIS,ioos:station:WAVCIS:CSI16:1,2010-12-04T01:00:00Z,29.4012,-89.0355,10.0,4.097,176.0,,'11111222,11111222,99999999' 
WAVCIS,ioos:station:WAVCIS:CSI16:1,2010-12-04T02:00:00Z,29.4012,-89.0355,10.0,3.387,189.0,,'11111222,11111222,99999999' 
WAVCIS,ioos:station:WAVCIS:CSI16:1,2010-12-04T03:00:00Z,29.4012,-89.0355,10.0,4.374,190.0,,'11111222,11111222,99999999' 
WAVCIS,ioos:station:WAVCIS:CSI16:1,2010-12-04T04:00:00Z,29.4012,-89.0355,10.0,4.934,193.0,,'11111222,11111222,99999999' 
WAVCIS,ioos:station:WAVCIS:CSI16:1,2010-12-04T05:00:00Z,29.4012,-89.0355,10.0,4.808,198.0,,'11111222,11111222,99999999' 
WAVCIS,ioos:station:WAVCIS:CSI16:1,2010-12-04T06:00:00Z,29.4012,-89.0355,10.0,4.593,202.0,,'11111222,11111222,99999999' 
WAVCIS,ioos:station:WAVCIS:CSI16:1,2010-12-04T07:00:00Z,29.4012,-89.0355,10.0,4.648,207.0,,'11111222,11111222,99999999' 
WAVCIS,ioos:station:WAVCIS:CSI16:1,2010-12-04T08:00:00Z,29.4012,-89.0355,10.0,4.387,206.0,,'11111222,11111222,99999999' 
WAVCIS,ioos:station:WAVCIS:CSI16:1,2010-12-04T09:00:00Z,29.4012,-89.0355,10.0,4.71,205.0,,'11111222,11111222,99999999' 
WAVCIS,ioos:station:WAVCIS:CSI16:1,2010-12-04T10:00:00Z,29.4012,-89.0355,10.0,4.661,206.0,,'11111222,11111222,99999999' 
WAVCIS,ioos:station:WAVCIS:CSI16:1,2010-12-04T11:00:00Z,29.4012,-89.0355,10.0,5.346,202.0,,'11111222,11111222,99999999' 
WAVCIS,ioos:station:WAVCIS:CSI16:1,2010-12-04T12:00:00Z,29.4012,-89.0355,10.0,6.241,202.0,,'11111222,11111222,99999999' 
WAVCIS,ioos:station:WAVCIS:CSI16:1,2010-12-04T13:00:00Z,29.4012,-89.0355,10.0,5.65,203.0,,'11111222,11111222,99999999' 
WAVCIS,ioos:station:WAVCIS:CSI16:1,2010-12-04T14:00:00Z,29.4012,-89.0355,10.0,6.004,190.0,,'11111222,11111222,99999999' 
WAVCIS,ioos:station:WAVCIS:CSI16:1,2010-12-04T15:00:00Z,29.4012,-89.0355,10.0,6.478,194.0,,'11111222,11111222,99999999' 
WAVCIS,ioos:station:WAVCIS:CSI16:1,2010-12-04T16:00:00Z,29.4012,-89.0355,10.0,5.577,184.0,,'11111222,11111222,99999999' 
WAVCIS,ioos:station:WAVCIS:CSI16:1,2010-12-04T17:00:00Z,29.4012,-89.0355,10.0,5.642,188.0,,'11111222,11111222,99999999' 
WAVCIS,ioos:station:WAVCIS:CSI16:1,2010-12-04T18:00:00Z,29.4012,-89.0355,10.0,5.616,192.0,,'11111222,11111222,99999999' 
WAVCIS,ioos:station:WAVCIS:CSI16:1,2010-12-04T19:00:00Z,29.4012,-89.0355,10.0,7.25,220.0,,'11111222,11111222,99999999' 
WAVCIS,ioos:station:WAVCIS:CSI16:1,2010-12-04T20:00:00Z,29.4012,-89.0355,10.0,7.22,225.0,,'11111222,11111222,99999999' 
WAVCIS,ioos:station:WAVCIS:CSI16:1,2010-12-04T21:00:00Z,29.4012,-89.0355,10.0,7.29,229.0,,'11111222,11111222,99999999' 
WAVCIS,ioos:station:WAVCIS:CSI16:1,2010-12-04T22:00:00Z,29.4012,-89.0355,10.0,6.771,227.0,,'11111222,11111222,99999999' 
WAVCIS,ioos:station:WAVCIS:CSI16:1,2010-12-04T23:00:00Z,29.4012,-89.0355,10.0,7.17,231.0,,'11111222,11111222,99999999' 
WAVCIS,ioos:station:WAVCIS:CSI16:1,2010-12-05T00:00:00Z,29.4012,-89.0355,10.0,7.7,221.0,,'11111222,11111222,99999999' 
WAVCIS,ioos:station:WAVCIS:CSI16:1,2010-12-05T01:00:00Z,29.4012,-89.0355,10.0,9.04,219.0,,'11111222,11111222,99999999' 
WAVCIS,ioos:station:WAVCIS:CSI16:1,2010-12-05T02:00:00Z,29.4012,-89.0355,10.0,7.85,240.0,,'11111222,11111222,99999999' 
WAVCIS,ioos:station:WAVCIS:CSI16:1,2010-12-05T03:00:00Z,29.4012,-89.0355,10.0,7.26,243.0,,'11111222,11111222,99999999' 
WAVCIS,ioos:station:WAVCIS:CSI16:1,2010-12-05T04:00:00Z,29.4012,-89.0355,10.0,7.23,250.0,,'11111222,11111222,99999999' 
WAVCIS,ioos:station:WAVCIS:CSI16:1,2010-12-05T05:00:00Z,29.4012,-89.0355,10.0,7.5,245.0,,'11111222,11111222,99999999' 
WAVCIS,ioos:station:WAVCIS:CSI16:1,2010-12-05T06:00:00Z,29.4012,-89.0355,10.0,7.73,253.0,,'11111222,11111222,99999999' 
WAVCIS,ioos:station:WAVCIS:CSI16:1,2010-12-05T07:00:00Z,29.4012,-89.0355,10.0,9.08,275.0,,'11111222,11111222,99999999' 
WAVCIS,ioos:station:WAVCIS:CSI16:1,2010-12-05T08:00:00Z,29.4012,-89.0355,10.0,7.31,305.0,,'11111222,11111222,99999999' 
WAVCIS,ioos:station:WAVCIS:CSI16:1,2010-12-05T09:00:00Z,29.4012,-89.0355,10.0,11.18,352.0,,'11111222,11111222,99999999' 
WAVCIS,ioos:station:WAVCIS:CSI16:1,2010-12-05T10:00:00Z,29.4012,-89.0355,10.0,11.94,359.0,,'11111222,11111222,99999999' 
WAVCIS,ioos:station:WAVCIS:CSI16:1,2010-12-05T11:00:00Z,29.4012,-89.0355,10.0,11.93,1.0,,'11111222,11111222,99999999' 
WAVCIS,ioos:station:WAVCIS:CSI16:1,2010-12-05T12:00:00Z,29.4012,-89.0355,10.0,12.16,2.0,,'11111222,11111222,99999999' 
WAVCIS,ioos:station:WAVCIS:CSI16:1,2010-12-05T13:00:00Z,29.4012,-89.0355,10.0,12.43,0.0,,'11111222,11111222,99999999' 
WAVCIS,ioos:station:WAVCIS:CSI16:1,2010-12-05T14:00:00Z,29.4012,-89.0355,10.0,13.26,0.0,,'11111222,11111222,99999999' 
WAVCIS,ioos:station:WAVCIS:CSI16:1,2010-12-05T15:00:00Z,29.4012,-89.0355,10.0,13.79,1.0,,'11111222,11111222,99999999' 
WAVCIS,ioos:station:WAVCIS:CSI16:1,2010-12-05T16:00:00Z,29.4012,-89.0355,10.0,12.6,5.0,,'11111222,11111222,99999999' 
WAVCIS,ioos:station:WAVCIS:CSI16:1,2010-12-05T17:00:00Z,29.4012,-89.0355,10.0,11.37,3.0,,'11111222,11111222,99999999' 
WAVCIS,ioos:station:WAVCIS:CSI16:1,2010-12-05T18:00:00Z,29.4012,-89.0355,10.0,11.85,2.0,,'11111222,11111222,99999999' 
WAVCIS,ioos:station:WAVCIS:CSI16:1,2010-12-05T19:00:00Z,29.4012,-89.0355,10.0,11.08,351.0,,'11111222,11111222,99999999' 
WAVCIS,ioos:station:WAVCIS:CSI16:1,2010-12-05T20:00:00Z,29.4012,-89.0355,10.0,11.56,354.0,,'11111222,11111222,99999999' 
WAVCIS,ioos:station:WAVCIS:CSI16:1,2010-12-05T21:00:00Z,29.4012,-89.0355,10.0,10.91,352.0,,'11111222,11111222,99999999' 
WAVCIS,ioos:station:WAVCIS:CSI16:1,2010-12-05T22:00:00Z,29.4012,-89.0355,10.0,11.93,1.0,,'11111222,11111222,99999999' 
WAVCIS,ioos:station:WAVCIS:CSI16:1,2010-12-05T23:00:00Z,29.4012,-89.0355,10.0,10.87,1.0,,'11111222,11111222,99999999' 
WAVCIS,ioos:station:WAVCIS:CSI16:1,2010-12-06T00:00:00Z,29.4012,-89.0355,10.0,10.84,1.0,,'11111222,11111222,99999999' 
WAVCIS,ioos:station:WAVCIS:CSI16:1,2010-12-06T01:00:00Z,29.4012,-89.0355,10.0,11.12,2.0,,'11111222,11111222,99999999' 
WAVCIS,ioos:station:WAVCIS:CSI16:1,2010-12-06T02:00:00Z,29.4012,-89.0355,10.0,11.46,1.0,,'11111222,11111222,99999999' 
WAVCIS,ioos:station:WAVCIS:CSI16:1,2010-12-06T03:00:00Z,29.4012,-89.0355,10.0,11.92,0.0,,'11111222,11111222,99999999' 
WAVCIS,ioos:station:WAVCIS:CSI16:1,2010-12-06T04:00:00Z,29.4012,-89.0355,10.0,12.69,2.0,,'11111222,11111222,99999999' 
WAVCIS,ioos:station:WAVCIS:CSI16:1,2010-12-06T05:00:00Z,29.4012,-89.0355,10.0,13.18,1.0,,'11111222,11111222,99999999' 
WAVCIS,ioos:station:WAVCIS:CSI16:1,2010-12-06T06:00:00Z,29.4012,-89.0355,10.0,11.8,6.0,,'11111222,11111222,99999999' 
WAVCIS,ioos:station:WAVCIS:CSI16:1,2010-12-06T07:00:00Z,29.4012,-89.0355,10.0,11.88,4.0,,'11111222,11111222,99999999' 
WAVCIS,ioos:station:WAVCIS:CSI16:1,2010-12-06T08:00:00Z,29.4012,-89.0355,10.0,11.93,4.0,,'11111222,11111222,99999999' 
WAVCIS,ioos:station:WAVCIS:CSI16:1,2010-12-06T09:00:00Z,29.4012,-89.0355,10.0,12.5,4.0,,'11111222,11111222,99999999' 
WAVCIS,ioos:station:WAVCIS:CSI16:1,2010-12-06T10:00:00Z,29.4012,-89.0355,10.0,11.59,3.0,,'11111222,11111222,99999999' 
WAVCIS,ioos:station:WAVCIS:CSI16:1,2010-12-06T11:00:00Z,29.4012,-89.0355,10.0,11.4,2.0,,'11111222,11111222,99999999' 
WAVCIS,ioos:station:WAVCIS:CSI16:1,2010-12-06T12:00:00Z,29.4012,-89.0355,10.0,11.38,357.0,,'11111222,11111222,99999999' 
WAVCIS,ioos:station:WAVCIS:CSI16:1,2010-12-06T13:00:00Z,29.4012,-89.0355,10.0,11.59,356.0,,'11111222,11111222,99999999' 
WAVCIS,ioos:station:WAVCIS:CSI16:1,2010-12-06T14:00:00Z,29.4012,-89.0355,10.0,10.59,357.0,,'11111222,11111222,99999999' 
WAVCIS,ioos:station:WAVCIS:CSI16:1,2010-12-06T15:00:00Z,29.4012,-89.0355,10.0,11.42,357.0,,'11111222,11111222,99999999' 
WAVCIS,ioos:station:WAVCIS:CSI16:1,2010-12-06T16:00:00Z,29.4012,-89.0355,10.0,11.21,359.0,,'11111222,11111222,99999999' 
WAVCIS,ioos:station:WAVCIS:CSI16:1,2010-12-06T17:00:00Z,29.4012,-89.0355,10.0,9.88,351.0,,'11111222,11111222,99999999' 
WAVCIS,ioos:station:WAVCIS:CSI16:1,2010-12-06T18:00:00Z,29.4012,-89.0355,10.0,9.47,356.0,,'11111222,11111222,99999999' 
WAVCIS,ioos:station:WAVCIS:CSI16:1,2010-12-06T19:00:00Z,29.4012,-89.0355,10.0,8.18,343.0,,'11111222,11111222,99999999' 
WAVCIS,ioos:station:WAVCIS:CSI16:1,2010-12-06T20:00:00Z,29.4012,-89.0355,10.0,8.16,333.0,,'11111222,11111222,99999999' 
WAVCIS,ioos:station:WAVCIS:CSI16:1,2010-12-06T21:00:00Z,29.4012,-89.0355,10.0,9.02,333.0,,'11111222,11111222,99999999' 
WAVCIS,ioos:station:WAVCIS:CSI16:1,2010-12-06T22:00:00Z,29.4012,-89.0355,10.0,7.96,332.0,,'11111222,11111222,99999999' 
WAVCIS,ioos:station:WAVCIS:CSI16:1,2010-12-06T23:00:00Z,29.4012,-89.0355,10.0,9.01,333.0,,'11111222,11111222,99999999' 
WAVCIS,ioos:station:WAVCIS:CSI16:1,2010-12-07T00:00:00Z,29.4012,-89.0355,10.0,8.79,328.0,,'11111222,11111222,99999999' 
WAVCIS,ioos:station:WAVCIS:CSI16:1,2010-12-07T01:00:00Z,29.4012,-89.0355,10.0,9.54,333.0,,'11111222,11111222,99999999' 
WAVCIS,ioos:station:WAVCIS:CSI16:1,2010-12-07T02:00:00Z,29.4012,-89.0355,10.0,9.69,331.0,,'11111222,11111222,99999999' 
WAVCIS,ioos:station:WAVCIS:CSI16:1,2010-12-07T03:00:00Z,29.4012,-89.0355,10.0,10.46,336.0,,'11111222,11111222,99999999' 
WAVCIS,ioos:station:WAVCIS:CSI16:1,2010-12-07T04:00:00Z,29.4012,-89.0355,10.0,10.29,337.0,,'11111222,11111222,99999999' 
WAVCIS,ioos:station:WAVCIS:CSI16:1,2010-12-07T05:00:00Z,29.4012,-89.0355,10.0,9.82,346.0,,'11111222,11111222,99999999' 
WAVCIS,ioos:station:WAVCIS:CSI16:1,2010-12-07T06:00:00Z,29.4012,-89.0355,10.0,10.67,350.0,,'11111222,11111222,99999999' 
WAVCIS,ioos:station:WAVCIS:CSI16:1,2010-12-07T07:00:00Z,29.4012,-89.0355,10.0,8.97,347.0,,'11111222,11111222,99999999' 
WAVCIS,ioos:station:WAVCIS:CSI16:1,2010-12-07T08:00:00Z,29.4012,-89.0355,10.0,9.09,353.0,,'11111222,11111222,99999999' 
WAVCIS,ioos:station:WAVCIS:CSI16:1,2010-12-07T09:00:00Z,29.4012,-89.0355,10.0,9.1,345.0,,'11111222,11111222,99999999' 
WAVCIS,ioos:station:WAVCIS:CSI16:1,2010-12-07T10:00:00Z,29.4012,-89.0355,10.0,8.98,349.0,,'11111222,11111222,99999999' 
WAVCIS,ioos:station:WAVCIS:CSI16:1,2010-12-07T11:00:00Z,29.4012,-89.0355,10.0,9.36,347.0,,'11111222,11111222,99999999' 
WAVCIS,ioos:station:WAVCIS:CSI16:1,2010-12-07T12:00:00Z,29.4012,-89.0355,10.0,9.74,359.0,,'11111222,11111222,99999999' 
WAVCIS,ioos:station:WAVCIS:CSI16:1,2010-12-07T13:00:00Z,29.4012,-89.0355,10.0,9.64,4.0,,'11111222,11111222,99999999' 
WAVCIS,ioos:station:WAVCIS:CSI16:1,2010-12-07T14:00:00Z,29.4012,-89.0355,10.0,9.63,9.0,,'11111222,11111222,99999999' 
WAVCIS,ioos:station:WAVCIS:CSI16:1,2010-12-07T15:00:00Z,29.4012,-89.0355,10.0,8.36,7.0,,'11111222,11111222,99999999' 
WAVCIS,ioos:station:WAVCIS:CSI16:1,2010-12-07T16:00:00Z,29.4012,-89.0355,10.0,6.892,9.0,,'11111222,11111222,99999999' 
WAVCIS,ioos:station:WAVCIS:CSI16:1,2010-12-07T17:00:00Z,29.4012,-89.0355,10.0,5.501,359.0,,'11111222,11111222,99999999' 
WAVCIS,ioos:station:WAVCIS:CSI16:1,2010-12-07T18:00:00Z,29.4012,-89.0355,10.0,4.778,6.0,,'11111222,11111222,99999999' 
WAVCIS,ioos:station:WAVCIS:CSI16:1,2010-12-07T19:00:00Z,29.4012,-89.0355,10.0,4.109,0.0,,'11111222,11144222,99999999' 
WAVCIS,ioos:station:WAVCIS:CSI16:1,2010-12-07T20:00:00Z,29.4012,-89.0355,10.0,4.402,354.0,,'11111222,11111222,99999999' 
WAVCIS,ioos:station:WAVCIS:CSI16:1,2010-12-07T21:00:00Z,29.4012,-89.0355,10.0,5.073,351.0,,'11111222,11111222,99999999' 
WAVCIS,ioos:station:WAVCIS:CSI16:1,2010-12-07T22:00:00Z,29.4012,-89.0355,10.0,4.407,349.0,,'11111222,11111222,99999999' 
WAVCIS,ioos:station:WAVCIS:CSI16:1,2010-12-07T23:00:00Z,29.4012,-89.0355,10.0,3.629,333.0,,'11111222,11111222,99999999' 
WAVCIS,ioos:station:WAVCIS:CSI16:1,2010-12-08T00:00:00Z,29.4012,-89.0355,10.0,3.026,324.0,,'11111222,11111222,99999999' 
WAVCIS,ioos:station:WAVCIS:CSI16:1,2010-12-08T01:00:00Z,29.4012,-89.0355,10.0,2.179,312.0,,'11111222,11111222,99999999' 
WAVCIS,ioos:station:WAVCIS:CSI16:1,2010-12-08T02:00:00Z,29.4012,-89.0355,10.0,2.181,283.0,,'11111222,11111222,99999999' 
WAVCIS,ioos:station:WAVCIS:CSI16:1,2010-12-08T03:00:00Z,29.4012,-89.0355,10.0,2.557,294.0,,'11111222,11111222,99999999' 
WAVCIS,ioos:station:WAVCIS:CSI16:1,2010-12-08T04:00:00Z,29.4012,-89.0355,10.0,2.538,316.0,,'11111222,11111222,99999999' 
WAVCIS,ioos:station:WAVCIS:CSI16:1,2010-12-08T05:00:00Z,29.4012,-89.0355,10.0,3.608,333.0,,'11111222,11111222,99999999' 
WAVCIS,ioos:station:WAVCIS:CSI16:1,2010-12-08T06:00:00Z,29.4012,-89.0355,10.0,4.495,333.0,,'11111222,11111222,99999999' 
WAVCIS,ioos:station:WAVCIS:CSI16:1,2010-12-08T07:00:00Z,29.4012,-89.0355,10.0,5.048,334.0,,'11111222,11111222,99999999' 
WAVCIS,ioos:station:WAVCIS:CSI16:1,2010-12-08T08:00:00Z,29.4012,-89.0355,10.0,4.89,354.0,,'11111222,11111222,99999999' 
WAVCIS,ioos:station:WAVCIS:CSI16:1,2010-12-08T09:00:00Z,29.4012,-89.0355,10.0,3.467,15.0,,'11111222,11111222,99999999' 
WAVCIS,ioos:station:WAVCIS:CSI16:1,2010-12-08T10:00:00Z,29.4012,-89.0355,10.0,3.098,19.0,,'11111222,11111222,99999999' 
WAVCIS,ioos:station:WAVCIS:CSI16:1,2010-12-08T11:00:00Z,29.4012,-89.0355,10.0,4.873,59.0,,'11111222,11111222,99999999' 
WAVCIS,ioos:station:WAVCIS:CSI16:1,2010-12-08T12:00:00Z,29.4012,-89.0355,10.0,5.923,351.0,,'11111222,11111222,99999999' 
WAVCIS,ioos:station:WAVCIS:CSI16:1,2010-12-08T13:00:00Z,29.4012,-89.0355,10.0,11.63,350.0,,'11111222,11111222,99999999' 
WAVCIS,ioos:station:WAVCIS:CSI16:1,2010-12-08T14:00:00Z,29.4012,-89.0355,10.0,4.284,350.0,,'11111222,11111222,99999999' 
WAVCIS,ioos:station:WAVCIS:CSI16:1,2010-12-08T15:00:00Z,29.4012,-89.0355,10.0,5.005,13.0,,'11111222,11111222,99999999' 
WAVCIS,ioos:station:WAVCIS:CSI16:1,2010-12-08T16:00:00Z,29.4012,-89.0355,10.0,5.758,14.0,,'11111222,11111222,99999999' 
WAVCIS,ioos:station:WAVCIS:CSI16:1,2010-12-08T17:00:00Z,29.4012,-89.0355,10.0,3.144,20.0,,'11111222,11111222,99999999' 
WAVCIS,ioos:station:WAVCIS:CSI16:1,2010-12-08T18:00:00Z,29.4012,-89.0355,10.0,7.85,11.0,,'11111222,11111222,99999999' 
WAVCIS,ioos:station:WAVCIS:CSI16:1,2010-12-08T19:00:00Z,29.4012,-89.0355,10.0,11.83,9.0,,'11111222,11111222,99999999' 
WAVCIS,ioos:station:WAVCIS:CSI16:1,2010-12-08T20:00:00Z,29.4012,-89.0355,10.0,11.11,4.0,,'11111222,11111222,99999999' 
WAVCIS,ioos:station:WAVCIS:CSI16:1,2010-12-08T21:00:00Z,29.4012,-89.0355,10.0,10.41,3.0,,'11111222,11111222,99999999' 
WAVCIS,ioos:station:WAVCIS:CSI16:1,2010-12-08T22:00:00Z,29.4012,-89.0355,10.0,10.61,6.0,,'11111222,11111222,99999999' 
WAVCIS,ioos:station:WAVCIS:CSI16:1,2010-12-08T23:00:00Z,29.4012,-89.0355,10.0,10.59,5.0,,'11111222,11111222,99999999' 
WAVCIS,ioos:station:WAVCIS:CSI16:1,2010-12-09T00:00:00Z,29.4012,-89.0355,10.0,11.15,0.0,,'11111222,11111222,99999999' 
WAVCIS,ioos:station:WAVCIS:CSI16:1,2010-12-09T01:00:00Z,29.4012,-89.0355,10.0,11.94,7.0,,'11111222,11111222,99999999' 
WAVCIS,ioos:station:WAVCIS:CSI16:1,2010-12-09T02:00:00Z,29.4012,-89.0355,10.0,10.92,8.0,,'11111222,11111222,99999999' 
WAVCIS,ioos:station:WAVCIS:CSI16:1,2010-12-09T03:00:00Z,29.4012,-89.0355,10.0,11.9,8.0,,'11111222,11111222,99999999' 
WAVCIS,ioos:station:WAVCIS:CSI16:1,2010-12-09T04:00:00Z,29.4012,-89.0355,10.0,11.0,9.0,,'11111222,11111222,99999999' 
WAVCIS,ioos:station:WAVCIS:CSI16:1,2010-12-09T05:00:00Z,29.4012,-89.0355,10.0,11.52,6.0,,'11111222,11111222,99999999' 